Theta_e
353 354 358 358 357 360 362 359 354 355 352 348 347 351 352 352 354 360 351 352 353 346 347 343 341 332 329 331 333 338 338 338 338 337 337 340 341 339 339 332 340 336 330 328 327 324 323 323 325
353 358 359 353 363 364 364 354 354 353 352 349 350 351 350 353 353 353 353 351 350 350 344 337 335 331 327 329 332 336 337 340 338 335 336 338 340 340 340 338 331 335 339 340 333 330 327 324 324
354 356 359 349 360 364 359 353 353 350 349 350 348 351 351 351 354 354 352 350 349 348 349 335 341 328 326 328 330 330 333 334 334 331 336 336 335 339 338 338 336 331 331 331 338 338 332 335 331
351 358 349 358 357 353 353 351 352 351 348 350 352 352 350 350 352 353 352 351 349 349 348 330 335 333 326 327 330 329 329 331 329 329 330 329 329 331 337 335 335 335 332 331 332 334 335 336 337
349 352 358 363 353 351 347 349 350 350 349 351 351 351 351 351 351 353 352 351 352 353 349 331 332 328 326 330 331 330 329 331 329 329 329 329 329 329 333 337 337 336 336 340 339 336 337 337 336
348 348 354 359 356 352 349 349 348 351 350 350 350 350 351 351 352 354 352 352 353 354 350 339 338 336 330 331 333 332 330 330 329 328 329 329 329 331 332 335 337 336 335 337 334 333 334 334 335
349 353 355 352 351 350 346 345 346 348 350 348 351 353 351 350 350 354 352 352 353 353 352 348 343 342 341 335 334 334 332 330 329 328 328 329 334 334 333 333 336 335 335 336 334 334 336 335 335
346 347 348 346 351 345 343 344 344 346 347 348 352 354 352 350 349 353 352 353 353 351 350 347 348 346 345 344 339 337 337 334 335 331 330 331 332 335 333 333 336 334 335 335 339 334 333 332 333
343 346 347 347 347 347 343 344 349 348 349 348 352 353 350 350 350 351 352 352 350 352 351 351 350 346 347 346 344 342 342 342 340 340 336 334 336 337 333 334 336 334 334 335 335 333 333 331 336
340 341 343 344 343 344 342 346 343 345 350 350 351 351 350 350 349 350 349 351 351 351 351 350 349 347 346 349 344 339 340 337 341 338 340 339 338 339 333 333 333 337 334 333 333 330 332 334 341
339 341 340 339 340 342 346 346 345 345 347 350 351 351 350 350 349 349 350 350 351 350 350 349 349 347 348 348 347 345 340 343 343 341 340 342 341 340 336 334 333 335 336 333 334 342 345 341 340
339 337 339 339 339 341 342 343 342 344 347 348 351 351 350 350 349 348 349 348 349 349 349 349 349 348 346 347 347 347 344 343 343 344 344 341 342 342 340 338 335 333 335 340 343 343 344 345 346
338 337 337 337 338 340 340 342 344 346 347 349 351 350 349 349 348 347 347 347 349 349 349 348 351 351 349 350 350 351 348 343 344 342 343 345 342 342 343 341 341 336 338 341 344 344 344 343 344
336 335 336 336 337 338 338 340 343 341 346 349 352 350 350 349 348 347 346 347 347 349 349 350 349 348 346 350 349 349 347 342 346 342 343 345 345 344 341 343 340 341 343 342 343 343 343 343 343
336 337 338 337 336 338 338 341 343 341 344 348 351 351 350 349 347 347 347 348 348 350 350 351 351 349 349 351 351 348 350 348 349 348 342 340 346 345 345 344 342 343 343 339 342 346 345 342 346
337 339 342 338 335 337 334 342 342 342 343 347 349 350 351 350 349 348 347 348 349 350 350 350 352 351 350 351 350 348 351 350 349 348 345 342 344 346 343 344 346 344 344 345 345 344 343 345 339
337 340 336 337 335 334 336 337 341 338 341 344 347 349 350 351 351 350 349 349 350 350 350 351 352 352 352 351 352 352 350 349 348 348 341 340 342 344 345 344 343 341 347 346 344 345 345 344 341
339 336 335 334 335 333 333 334 335 335 338 339 345 349 350 351 352 352 352 351 352 351 352 352 353 353 353 353 352 351 350 347 342 349 346 339 341 342 346 341 345 342 341 345 345 345 345 344 347
334 334 334 334 334 333 332 333 334 334 335 338 339 346 349 349 350 352 352 352 352 353 354 354 355 354 353 353 352 351 348 348 348 347 345 344 342 341 343 344 342 339 341 343 343 341 342 344 344
333 334 334 334 333 332 333 334 334 335 335 335 337 343 346 349 350 352 352 352 352 353 354 357 357 357 352 347 343 354 348 347 348 347 345 345 344 342 340 342 340 344 345 345 344 344 346 344 343
334 334 333 332 332 333 335 338 338 337 337 337 337 340 343 347 349 351 353 352 351 354 355 356 358 358 354 344 347 350 352 354 350 351 347 346 344 342 340 343 342 342 343 346 344 343 345 344 344
334 334 333 332 333 336 336 342 342 342 341 340 340 341 343 345 346 351 353 353 349 353 355 358 359 359 358 355 353 353 353 351 349 348 352 349 348 348 345 344 343 342 339 341 341 343 344 342 345
334 333 333 333 333 335 336 344 348 344 344 344 342 341 343 343 344 346 351 352 352 353 354 356 359 361 359 356 352 356 353 352 353 352 352 349 345 345 347 347 344 345 344 342 341 340 342 345 344
333 332 333 335 335 336 339 343 348 346 344 344 343 343 344 343 344 345 346 352 353 353 353 354 358 361 360 360 359 356 355 352 355 352 351 353 344 344 345 345 346 346 346 345 344 344 343 345 345
332 333 335 339 340 341 339 341 345 341 338 342 343 345 346 345 343 344 349 349 354 354 352 355 353 351 357 360 360 356 358 352 349 351 352 349 349 352 351 349 348 345 345 345 346 345 345 345 347
334 334 336 344 345 343 340 342 345 342 338 342 346 347 348 349 350 351 351 350 352 354 354 353 356 356 356 355 358 360 360 358 353 353 355 353 349 351 350 351 349 348 347 345 347 346 346 346 346
333 335 335 337 340 341 342 344 339 339 341 341 349 349 350 355 356 356 356 355 355 355 356 358 359 358 359 361 361 359 359 359 358 356 358 353 353 355 353 351 349 349 350 347 347 347 346 346 346
334 336 338 338 344 346 346 349 346 343 340 341 343 348 353 352 347 355 356 357 357 357 358 360 360 362 362 362 361 360 358 357 358 355 354 355 357 355 352 354 352 351 351 346 346 347 348 346 343
334 334 334 336 338 343 344 349 342 342 341 341 346 348 352 350 351 350 350 353 354 354 354 354 356 356 360 358 358 359 357 355 354 358 356 353 353 352 352 347 346 348 352 349 347 346 346 347 345
337 338 337 340 342 339 341 343 341 339 339 340 339 344 350 349 350 348 350 351 350 351 352 353 352 352 354 354 356 357 355 354 355 356 356 357 356 351 351 340 342 349 351 350 347 346 345 346 346
Wind_Speed
1 8 9 3 5 3 8 14 16 6 7 16 15 16 17 4 9 12 23 20 21 25 23 22 20 21 21 23 24 23 23 21 20 20 20 20 18 16 15 15 16 15 16 17 16 16 16 17 17
1 4 5 10 3 3 5 12 13 12 12 10 22 15 20 20 25 27 25 21 21 22 22 22 21 21 21 22 23 23 23 21 20 20 18 18 18 16 13 12 14 14 13 13 13 13 14 13 13
6 1 5 3 4 6 5 14 9 20 11 17 17 17 12 22 28 25 28 26 23 22 19 21 21 21 21 20 21 21 21 20 18 16 16 14 15 12 14 11 10 10 11 11 10 9 11 10 10
1 5 9 1 8 13 12 7 16 9 20 22 20 13 23 18 22 30 27 26 21 20 20 22 21 20 21 21 21 21 17 19 18 13 9 14 14 13 7 9 8 6 7 7 8 8 7 8 7
10 6 3 6 9 12 9 13 17 5 17 17 25 21 17 16 22 30 27 22 24 22 16 21 20 20 21 20 20 21 20 19 17 15 12 11 12 13 9 4 7 5 4 4 3 4 3 3 3
13 3 1 10 19 10 9 12 14 21 19 13 24 19 15 19 24 24 24 22 21 17 18 21 20 18 19 20 19 20 20 20 18 17 16 17 14 19 21 7 6 6 4 2 0 1 1 2 2
9 6 14 16 6 6 9 14 8 15 18 9 25 15 16 20 19 27 27 22 20 18 20 19 21 20 18 18 18 18 19 19 19 19 18 18 18 21 24 15 8 7 6 4 2 3 2 3 3
12 2 11 7 9 8 11 6 10 17 7 8 18 8 20 24 22 24 21 21 19 23 16 15 16 18 19 19 18 17 17 16 16 18 19 18 19 16 29 19 9 9 8 6 5 5 5 5 5
6 4 8 13 9 5 8 11 21 34 13 10 15 19 25 25 23 26 25 23 23 21 18 16 14 15 14 14 18 17 16 16 17 17 18 19 17 15 28 25 13 12 11 9 8 6 6 7 6
4 6 10 14 8 7 4 26 33 18 21 18 19 22 24 24 22 27 26 25 28 19 19 21 16 13 14 14 14 15 15 17 16 14 17 17 13 9 24 24 20 14 13 11 8 4 7 9 8
12 4 9 10 10 6 16 10 17 7 12 18 14 19 23 23 20 22 24 24 22 15 22 20 19 12 14 15 18 12 15 11 15 14 8 11 9 9 23 29 25 19 13 10 8 9 6 10 6
7 5 12 6 2 1 9 10 4 16 8 14 15 18 22 21 20 20 20 18 18 17 16 21 21 16 15 14 11 12 12 11 13 12 12 12 11 11 15 22 31 22 14 14 10 11 7 11 9
11 3 13 9 7 4 1 3 12 16 10 14 16 19 20 19 18 19 18 18 17 17 16 20 16 16 14 13 13 11 12 14 15 10 10 13 11 12 11 14 18 21 13 14 18 9 9 14 12
5 5 1 11 7 5 4 3 23 6 15 15 13 17 18 18 18 18 18 20 20 18 17 18 20 17 17 13 15 13 16 13 18 9 8 11 14 11 9 12 20 21 25 22 13 11 13 14 5
7 11 10 8 7 3 6 4 8 11 11 16 16 16 16 16 17 18 17 18 19 19 22 19 17 16 15 17 17 14 11 8 11 9 8 9 13 13 14 11 17 22 26 18 18 13 13 16 8
14 6 8 5 3 7 9 2 9 11 9 16 17 16 17 15 16 17 17 16 18 19 23 19 19 20 18 14 14 11 12 8 12 12 9 9 9 13 13 12 10 9 16 15 15 12 13 12 8
8 2 8 7 8 4 5 2 10 10 13 13 15 19 16 16 17 17 17 17 19 18 19 20 20 19 16 14 13 12 12 12 12 13 8 13 12 8 15 10 7 10 10 11 13 16 11 14 8
8 3 7 2 8 2 8 11 7 11 16 11 14 23 18 18 19 20 19 18 19 17 21 20 20 19 19 18 13 13 15 14 8 18 18 14 13 12 8 12 12 10 12 12 15 13 15 18 12
6 7 9 3 3 2 5 10 9 8 9 16 11 20 21 20 19 22 20 20 19 19 21 22 23 23 21 21 17 15 11 14 12 14 16 13 11 12 9 9 13 11 11 13 13 15 19 20 18
7 9 4 4 2 7 10 11 5 3 3 3 7 15 19 20 22 23 23 21 20 19 20 20 24 27 23 21 14 14 10 10 11 10 12 12 13 12 13 10 11 16 11 13 12 15 13 14 16
14 8 10 6 11 14 11 7 7 5 6 5 8 9 15 18 25 25 24 23 19 21 21 23 26 25 21 24 15 12 11 11 13 13 12 13 14 11 9 11 11 15 16 14 13 11 14 13 13
10 8 10 9 12 12 13 2 2 19 12 7 6 11 16 18 17 24 24 24 21 21 20 20 21 20 15 13 16 13 12 14 11 10 9 11 13 14 13 15 16 17 19 20 13 13 16 13 11
11 11 7 11 10 15 12 10 9 18 21 19 6 5 16 16 19 13 18 28 23 25 19 19 21 20 14 10 13 13 12 11 8 9 14 15 15 15 18 18 17 19 21 22 19 21 20 15 14
7 11 14 15 12 11 4 9 5 5 22 22 5 7 3 10 10 11 38 26 22 22 21 19 16 18 17 16 14 17 14 12 13 11 13 14 10 14 14 13 17 19 20 23 22 22 20 20 17
12 15 10 7 10 4 11 2 12 21 33 26 1 10 6 6 1 3 15 17 20 24 20 20 18 16 14 17 17 16 16 14 15 14 14 14 13 13 13 15 15 16 22 22 22 23 22 22 22
15 16 9 4 7 3 12 9 13 23 36 7 14 11 7 8 10 14 10 8 14 15 17 20 21 17 15 15 16 17 15 16 17 17 18 18 12 16 21 19 17 17 18 23 24 24 22 23 24
16 15 6 11 22 7 7 9 11 10 13 9 17 12 12 22 18 15 11 7 7 9 8 8 13 14 12 12 12 15 19 20 18 16 22 24 14 14 7 14 17 19 19 20 23 25 27 27 25
16 12 10 7 3 6 5 7 13 9 7 9 5 13 23 24 17 9 7 7 5 4 6 7 6 8 8 12 16 15 17 18 21 21 23 13 12 15 19 17 19 20 24 24 25 26 26 29 30
8 11 11 9 6 3 5 6 18 6 3 5 11 8 19 24 21 5 3 3 6 5 6 3 6 7 9 7 15 18 19 24 16 19 21 21 21 22 23 21 27 23 24 25 25 28 28 30 29
8 7 6 2 9 3 9 5 12 8 6 6 4 10 13 6 7 8 11 11 8 8 7 3 0 3 6 10 6 22 15 15 16 17 16 19 22 20 20 19 19 22 22 23 23 23 27 32 30
Wind_Direction
23 52 26 21 53 294 118 68 83 59 33 53 60 92 101 51 107 116 136 147 147 148 145 140 138 140 144 144 141 136 134 129 119 117 117 115 110 104 101 105 103 101 102 101 101 106 113 121 122
240 254 330 35 9 11 6 115 82 59 85 49 82 73 70 88 102 124 133 138 138 143 140 145 144 146 146 149 147 142 138 134 127 124 124 122 115 107 101 104 111 114 108 103 102 108 111 117 126
119 142 74 167 259 82 82 71 73 29 44 133 80 55 78 105 121 132 137 137 140 138 148 150 147 149 151 151 150 150 149 145 133 139 129 125 126 113 110 102 101 108 111 114 114 111 114 121 125
285 171 55 324 42 95 47 48 99 133 74 82 106 75 98 113 116 128 137 141 136 142 166 151 150 154 157 158 158 156 165 156 155 164 149 153 156 154 110 113 106 95 104 110 118 117 118 128 137
235 88 219 231 72 30 60 36 73 65 56 81 96 108 93 102 126 132 134 139 141 152 168 158 155 158 161 163 162 165 178 181 176 187 200 181 178 187 183 146 137 123 105 102 106 109 123 140 163
272 164 276 59 56 321 17 32 85 91 81 125 115 119 107 123 140 147 143 147 151 147 147 164 163 163 167 171 173 176 183 197 196 203 207 229 230 220 206 208 179 162 163 165 251 237 226 247 254
228 225 91 91 97 276 29 28 17 78 161 95 102 110 132 141 146 154 143 151 149 156 160 164 172 175 175 180 182 183 190 199 204 215 221 224 244 226 216 210 211 191 192 208 247 268 267 278 297
290 1 92 90 131 58 82 72 34 61 64 97 140 146 154 156 152 155 153 148 155 158 171 171 175 179 185 188 190 193 201 213 215 225 228 236 239 268 211 210 207 211 214 214 232 255 275 304 309
265 10 128 75 65 111 116 93 42 348 1 90 98 144 155 157 157 149 149 151 141 159 160 170 182 188 178 199 197 199 209 222 227 232 238 244 255 256 205 214 219 219 220 225 234 257 300 320 312
41 42 39 117 190 100 104 101 105 167 255 98 89 121 144 157 162 157 155 158 158 171 174 174 180 189 182 197 215 207 206 223 224 230 242 247 257 225 208 216 225 232 228 232 244 298 309 307 288
68 55 121 51 31 67 111 173 145 169 59 95 125 142 152 161 169 166 162 164 169 159 177 183 180 191 196 200 219 205 219 220 215 229 237 235 245 215 210 217 219 227 231 245 259 285 296 304 264
112 83 80 88 318 199 50 65 45 80 52 91 130 149 157 164 173 171 171 172 173 178 185 178 183 195 206 213 234 223 217 224 225 232 244 250 248 226 223 224 226 228 235 255 278 256 254 285 311
73 356 142 144 229 102 121 97 17 117 120 103 130 149 160 174 178 175 181 174 183 183 191 180 181 190 203 217 214 202 193 230 227 242 238 239 246 230 235 220 220 224 247 240 246 236 256 273 278
104 215 203 145 132 167 234 121 119 255 122 115 137 156 167 178 181 178 188 177 183 184 190 195 197 220 209 216 222 212 235 207 205 225 245 232 242 236 247 231 208 213 230 236 226 224 244 266 230
241 233 206 94 82 336 44 292 129 110 145 143 157 171 172 181 181 186 193 186 182 186 196 198 210 226 226 205 231 218 244 208 222 249 243 252 226 228 232 239 216 229 226 231 226 249 244 269 239
223 268 124 190 209 146 241 316 136 154 173 161 166 172 172 185 183 188 192 193 186 194 194 209 206 223 231 226 224 199 217 225 234 249 271 256 214 221 229 224 213 217 208 218 214 232 251 266 215
225 186 108 143 143 274 211 324 185 172 158 179 174 166 176 183 189 186 191 192 192 198 201 197 208 223 233 228 215 197 203 216 243 249 254 253 242 221 215 217 208 219 211 209 221 242 242 240 265
229 169 113 183 155 73 301 278 230 218 177 177 186 162 170 181 196 184 193 197 190 193 196 199 198 212 219 219 215 216 216 230 241 240 252 251 233 222 229 217 217 217 221 229 232 234 226 233 238
338 299 327 289 359 274 261 291 278 226 226 174 181 172 174 185 187 185 195 191 194 190 199 202 200 213 218 221 220 235 233 242 244 238 245 232 220 228 228 226 224 226 235 234 238 235 242 235 233
296 273 278 25 355 246 239 239 280 321 244 226 204 178 182 182 177 185 186 191 197 191 199 207 208 223 224 216 235 229 233 241 243 243 238 226 226 234 229 222 234 227 230 238 251 253 241 248 231
258 308 44 319 291 258 252 227 149 112 209 208 240 197 188 183 183 184 185 191 191 193 205 216 222 236 235 231 246 217 221 235 227 231 233 230 230 207 219 237 252 228 230 241 242 239 234 241 229
299 37 329 308 300 303 198 143 315 15 351 153 165 192 181 192 201 179 185 190 188 193 200 216 234 248 244 226 214 217 229 241 250 252 267 254 237 236 235 229 231 231 225 232 229 229 237 244 229
310 338 309 284 273 277 232 137 8 43 339 300 119 36 191 196 206 357 204 186 190 182 189 206 219 230 241 230 217 230 234 235 258 262 226 250 244 243 235 229 226 224 222 231 235 236 231 233 226
290 281 272 258 245 262 304 133 14 88 244 272 146 204 25 324 138 88 222 177 179 179 181 186 209 214 226 232 230 226 227 222 228 242 235 246 238 241 239 240 238 235 232 237 234 237 235 227 219
251 256 263 261 256 8 284 65 171 196 221 245 73 61 41 309 21 83 141 160 167 181 167 180 202 202 207 214 232 231 224 231 226 234 241 244 241 248 229 226 229 242 238 238 233 232 235 230 219
270 274 292 13 313 207 290 136 169 201 208 100 111 91 80 51 42 35 62 130 162 184 204 198 203 201 209 218 225 231 239 238 237 234 229 239 242 258 240 228 231 246 250 241 235 238 230 230 224
246 250 270 239 221 195 16 1 116 124 110 115 97 91 73 67 53 23 14 38 92 173 195 183 190 203 217 228 235 239 239 243 239 241 248 227 226 247 328 230 244 245 244 248 243 236 233 224 223
269 312 295 308 18 356 72 41 248 45 50 74 66 95 87 85 23 345 10 28 78 143 182 181 202 205 223 234 243 247 252 256 245 242 248 254 238 241 241 242 244 248 253 261 248 239 235 232 229
198 241 244 307 295 148 226 218 260 152 68 30 92 93 120 128 150 132 106 85 85 90 99 147 192 229 251 255 231 240 248 252 251 254 253 248 247 242 245 255 262 261 258 261 253 245 240 237 231
221 281 259 280 295 321 323 83 43 27 96 97 345 65 64 46 120 176 175 165 136 114 101 26 45 293 250 266 268 256 274 256 251 258 251 253 257 256 252 276 259 261 263 263 264 251 244 237 234